timestamp,surface_pressure_avg,surface_temp_avg,battery_voltage,lat,long
2019-08-08 00:00:00+00:00,213.7731,17.36,12.97,47.84626,-54.09684
2019-08-08 00:10:00+00:00,215.2581,17.64,12.89,47.84626,-54.09684
2019-08-08 00:20:00+00:00,212.1297,17.7,12.97,47.84626,-54.09684
2019-08-08 00:30:00+00:00,210.3031,17.6,12.97,47.84626,-54.09684
2019-08-08 00:40:00+00:00,215.4231,17.65,12.97,47.84626,-54.09684
2019-08-08 00:50:00+00:00,219.9997,17.79,13.05,47.84626,-54.09684
2019-08-08 01:00:00+00:00,221.6614,17.96,12.97,47.84626,-54.09684
2019-08-08 01:10:00+00:00,221.9498,18.13,12.89,47.84626,-54.09684
2019-08-08 01:20:00+00:00,223.9981,18.23,12.97,47.84626,-54.09684
2019-08-08 01:30:00+00:00,228.1698,18.07,12.97,47.84626,-54.09684
2019-08-08 01:40:00+00:00,232.7048,17.3,12.97,47.84626,-54.09684
2019-08-08 01:50:00+00:00,234.148,17.51,12.97,47.84626,-54.09684
2019-08-08 02:00:00+00:00,234.548,18.1,12.89,47.84626,-54.09684
2019-08-08 02:10:00+00:00,240.4797,18.2,12.81,47.84626,-54.09684
2019-08-08 02:20:00+00:00,247.9831,17.93,12.97,47.84626,-54.09684
2019-08-08 02:30:00+00:00,251.0331,18.17,12.97,47.84626,-54.09684
2019-08-08 02:40:00+00:00,254.9481,17.85,12.97,47.84626,-54.09684
2019-08-08 02:50:00+00:00,267.1131,17.49,12.97,47.84626,-54.09684
2019-08-08 03:00:00+00:00,279.8898,17.76,12.89,47.84626,-54.09684
2019-08-08 03:10:00+00:00,282.9747,17.8,12.81,47.84626,-54.09684
2019-08-08 03:20:00+00:00,284.558,17.79,12.89,47.84626,-54.09684
2019-08-08 03:30:00+00:00,293.2564,17.5,12.89,47.84626,-54.09684
2019-08-08 03:40:00+00:00,302.2613,17.6,12.97,47.84626,-54.09684
2019-08-08 03:50:00+00:00,303.908,17.69,12.97,47.84626,-54.09684
2019-08-08 04:00:00+00:00,308.988,17.7,12.89,47.84626,-54.09684
2019-08-08 04:10:00+00:00,316.7446,17.6,12.81,47.84626,-54.09684
2019-08-08 04:20:00+00:00,319.5364,17.6,12.89,47.84626,-54.09684
2019-08-08 04:30:00+00:00,316.6247,17.69,12.89,47.84626,-54.09684
2019-08-08 04:40:00+00:00,320.6647,17.67,12.89,47.84626,-54.09684
2019-08-08 04:50:00+00:00,325.9279,17.68,12.97,47.84626,-54.09684
2019-08-08 05:00:00+00:00,328.1279,17.68,12.89,47.84626,-54.09684
2019-08-08 05:10:00+00:00,328.9713,17.77,12.81,47.84626,-54.09684
2019-08-08 05:20:00+00:00,330.8679,17.79,12.89,47.84626,-54.09684
2019-08-08 05:30:00+00:00,327.4346,17.77,12.89,47.84626,-54.09684
2019-08-08 05:40:00+00:00,324.3063,17.8,12.89,47.84626,-54.09684
2019-08-08 05:50:00+00:00,326.713,17.8,12.89,47.84626,-54.09684
2019-08-08 06:00:00+00:00,326.9097,17.8,12.89,47.84626,-54.09684
2019-08-08 06:10:00+00:00,321.6479,17.8,12.81,47.84626,-54.09684
2019-08-08 06:20:00+00:00,321.903,17.9,12.89,47.84626,-54.09684
2019-08-08 06:30:00+00:00,324.288,17.8,12.89,47.84626,-54.09684
2019-08-08 06:40:00+00:00,317.8347,17.94,12.89,47.84626,-54.09684
2019-08-08 06:50:00+00:00,309.1197,18.1,12.89,47.84626,-54.09684
2019-08-08 07:00:00+00:00,309.333,17.9,12.89,47.84626,-54.09684
2019-08-08 07:10:00+00:00,310.5213,17.9,12.81,47.84626,-54.09684
2019-08-08 07:20:00+00:00,302.978,18.05,12.89,47.84626,-54.09684
2019-08-08 07:30:00+00:00,293.2197,18.26,12.89,47.84626,-54.09684
2019-08-08 07:40:00+00:00,290.563,18.1,12.89,47.84626,-54.09684
2019-08-08 07:50:00+00:00,286.398,18.08,12.89,47.84626,-54.09684
2019-08-08 08:00:00+00:00,274.7581,18.36,12.81,47.84626,-54.09684
2019-08-08 08:10:00+00:00,265.8747,18.36,12.81,47.84626,-54.09684
2019-08-08 08:20:00+00:00,260.1565,18.1,12.89,47.84626,-54.09684
2019-08-08 08:30:00+00:00,250.3897,18.13,12.89,47.84626,-54.09684
2019-08-08 08:40:00+00:00,236.6331,18.3,12.89,47.84626,-54.09684
2019-08-08 08:50:00+00:00,229.3048,18.3,12.89,47.84626,-54.09684
2019-08-08 09:00:00+00:00,223.3264,18.2,12.81,47.84626,-54.09684
2019-08-08 09:10:00+00:00,215.3315,18.24,12.81,47.84626,-54.09684
2019-08-08 09:20:00+00:00,208.0914,18.4,12.89,47.84626,-54.09684
2019-08-08 09:30:00+00:00,203.0631,18.3,12.89,47.84626,-54.09684
2019-08-08 09:40:00+00:00,199.8215,18.25,12.89,47.84626,-54.09684
2019-08-08 09:50:00+00:00,197.4281,18.38,12.89,47.84626,-54.09684
2019-08-08 10:00:00+00:00,195.4481,18.37,12.89,47.84626,-54.09684
2019-08-08 10:10:00+00:00,193.1331,18.29,12.81,47.84626,-54.09684
2019-08-08 10:20:00+00:00,192.3215,18.3,12.89,47.84626,-54.09684
2019-08-08 10:30:00+00:00,193.8081,18.36,12.97,47.84626,-54.09684
2019-08-08 10:40:00+00:00,193.9148,18.3,12.97,47.84626,-54.09684
2019-08-08 10:50:00+00:00,194.2515,18.3,12.97,47.84626,-54.09684
2019-08-08 11:00:00+00:00,197.7131,18.3,12.97,47.84626,-54.09684
2019-08-08 11:10:00+00:00,201.9698,18.3,12.89,47.84626,-54.09684
2019-08-08 11:20:00+00:00,206.0914,18.3,12.97,47.84626,-54.09684
2019-08-08 11:30:00+00:00,211.8998,18.3,13.05,47.84626,-54.09684
2019-08-08 11:40:00+00:00,214.0681,18.32,13.13,47.84626,-54.09684
2019-08-08 11:50:00+00:00,214.5131,18.33,13.21,47.84626,-54.09684
2019-08-08 12:00:00+00:00,214.5848,18.38,13.21,47.84626,-54.09684
2019-08-08 12:10:00+00:00,214.8764,18.4,13.21,47.84626,-54.09684
2019-08-08 12:20:00+00:00,217.4281,18.4,13.29,47.84626,-54.09684
2019-08-08 12:30:00+00:00,217.7048,18.4,13.37,47.84626,-54.09684
2019-08-08 12:40:00+00:00,216.1631,18.4,13.53,47.84626,-54.09684
2019-08-08 12:50:00+00:00,214.8981,18.4,13.53,47.84626,-54.09684
2019-08-08 13:00:00+00:00,217.6181,18.4,13.53,47.84626,-54.09684
2019-08-08 13:10:00+00:00,219.8265,18.4,13.44,47.84626,-54.09684
2019-08-08 13:20:00+00:00,222.4048,18.4,13.6,47.84626,-54.09684
2019-08-08 13:30:00+00:00,227.3548,18.4,13.6,47.84626,-54.09684
2019-08-08 13:40:00+00:00,231.0648,18.4,13.68,47.84626,-54.09684
2019-08-08 13:50:00+00:00,233.3931,18.46,13.68,47.84626,-54.09684
2019-08-08 14:00:00+00:00,236.9981,18.5,13.68,47.84626,-54.09684
2019-08-08 14:10:00+00:00,242.4131,18.5,13.68,47.84626,-54.09684
2019-08-08 14:20:00+00:00,247.2848,18.5,13.84,47.84626,-54.09684
2019-08-08 14:30:00+00:00,252.3214,18.5,13.84,47.84626,-54.09684
2019-08-08 14:40:00+00:00,256.3064,18.5,13.92,47.84626,-54.09684
2019-08-08 14:50:00+00:00,261.618,18.5,14.0,47.84626,-54.09684
2019-08-08 15:00:00+00:00,267.4997,18.5,14.0,47.84626,-54.09684
2019-08-08 15:10:00+00:00,273.798,18.5,14.0,47.84626,-54.09684
2019-08-08 15:20:00+00:00,275.9664,18.5,14.16,47.84626,-54.09684
2019-08-08 15:30:00+00:00,283.6381,18.47,14.24,47.84626,-54.09684
2019-08-08 15:40:00+00:00,294.3463,18.48,14.32,47.84626,-54.09684
2019-08-08 15:50:00+00:00,300.0681,18.5,14.4,47.84626,-54.09684
2019-08-08 16:00:00+00:00,297.7397,18.5,14.32,47.84626,-54.09684
2019-08-08 16:10:00+00:00,302.4713,18.5,14.16,47.84626,-54.09684
2019-08-08 16:20:00+00:00,310.2996,18.5,14.24,47.84626,-54.09684
2019-08-08 16:30:00+00:00,316.073,18.5,14.32,47.84626,-54.09684
2019-08-08 16:40:00+00:00,317.6979,18.5,14.4,47.84626,-54.09684
2019-08-08 16:50:00+00:00,320.8196,18.4,14.48,47.84626,-54.09684
2019-08-08 17:00:00+00:00,319.598,18.44,14.32,47.84626,-54.09684
2019-08-08 17:10:00+00:00,323.588,18.5,14.32,47.84626,-54.09684
2019-08-08 17:20:00+00:00,329.8864,18.43,14.48,47.84626,-54.09684
2019-08-08 17:30:00+00:00,332.303,18.39,14.4,47.84626,-54.09684
2019-08-08 17:40:00+00:00,332.7313,18.64,14.32,47.84626,-54.09684
2019-08-08 17:50:00+00:00,339.2312,18.56,14.32,47.84626,-54.09684
2019-08-08 18:00:00+00:00,343.6263,18.5,14.24,47.84626,-54.09684
2019-08-08 18:10:00+00:00,340.1096,18.78,14.08,47.84626,-54.09684
2019-08-08 18:20:00+00:00,336.8913,18.69,14.16,47.84626,-54.09684
2019-08-08 18:30:00+00:00,335.8698,17.86,14.16,47.84626,-54.09684
2019-08-08 18:40:00+00:00,333.2014,18.58,14.16,47.84626,-54.09684
2019-08-08 18:50:00+00:00,329.1028,18.6,14.08,47.84626,-54.09684
2019-08-08 19:00:00+00:00,327.5262,18.49,14.0,47.84626,-54.09684
2019-08-08 19:10:00+00:00,326.723,18.48,13.92,47.84626,-54.09684
2019-08-08 19:20:00+00:00,322.1947,18.5,14.0,47.84626,-54.09684
2019-08-08 19:30:00+00:00,316.723,18.5,14.0,47.84626,-54.09684
2019-08-08 19:40:00+00:00,317.7112,18.5,14.08,47.84626,-54.09684
2019-08-08 19:50:00+00:00,315.6896,18.5,14.08,47.84626,-54.09684
2019-08-08 20:00:00+00:00,308.7047,18.58,14.0,47.84626,-54.09684
2019-08-08 20:10:00+00:00,300.2947,18.6,13.92,47.84626,-54.09684
2019-08-08 20:20:00+00:00,293.9197,18.6,14.0,47.84626,-54.09684
2019-08-08 20:30:00+00:00,284.1164,18.64,14.0,47.84626,-54.09684
2019-08-08 20:40:00+00:00,273.913,18.68,14.0,47.84626,-54.09684
2019-08-08 20:50:00+00:00,267.5797,18.7,14.0,47.84626,-54.09684
2019-08-08 21:00:00+00:00,262.8914,18.7,13.92,47.84626,-54.09684
2019-08-08 21:10:00+00:00,259.7248,18.7,13.84,47.84626,-54.09684
2019-08-08 21:20:00+00:00,255.7931,18.72,13.92,47.84626,-54.09684
2019-08-08 21:30:00+00:00,246.3748,18.79,13.84,47.84626,-54.09684
2019-08-08 21:40:00+00:00,235.8164,18.89,13.84,47.84626,-54.09684
2019-08-08 21:50:00+00:00,232.9415,18.9,13.84,47.84626,-54.09684
2019-08-08 22:00:00+00:00,229.9681,18.9,13.76,47.84626,-54.09684
2019-08-08 22:10:00+00:00,223.1064,18.87,13.6,47.84626,-54.09684
2019-08-08 22:20:00+00:00,215.9432,18.9,13.6,47.84626,-54.09684
2019-08-08 22:30:00+00:00,213.0448,18.9,13.53,47.84626,-54.09684
2019-08-08 22:40:00+00:00,210.5498,18.9,13.53,47.84626,-54.09684
2019-08-08 22:50:00+00:00,211.1614,18.9,13.44,47.84626,-54.09684
2019-08-08 23:00:00+00:00,214.6748,18.9,13.37,47.84626,-54.09684
2019-08-08 23:10:00+00:00,214.6914,18.9,13.21,47.84626,-54.09684
2019-08-08 23:20:00+00:00,213.3414,18.9,13.21,47.84626,-54.09684
2019-08-08 23:30:00+00:00,214.8048,18.9,13.21,47.84626,-54.09684
2019-08-08 23:40:00+00:00,216.6298,18.9,13.13,47.84626,-54.09684
2019-08-08 23:50:00+00:00,218.7231,18.9,13.13,47.84626,-54.09684
